Flag Weather past 2 weeks in Makassar, South Sulawesi, Indonesia

Now
81 °F

Passing clouds.


Feels Like: 81 °F
Forecast: 72 / 91 °F
Wind: 3 mph from Northeast

Location: Ujung Pandang / Hasanuddin

Current Time: Oct 31, 2014 at 7:57:48 AM

Latest Report: Oct 31, 2014 at 7:00 AM


Visibility: N/A

Pressure: 29.86 "Hg

Humidity: 51%

Dew point: 61 °F

Location of MakassarLocation

Historic Weather in Makassar — Graph

°F

Makassar temperature yesterday

Maximum temperature yesterday: 93 °F (at 10:00 AM)
Minimum temperature yesterday: 70 °F (at 5:00 AM)
Average temperature yesterday: 83 °F

Past Weeks' High & Low Weather Summary

 TemperatureHumidityPressure
High100 °F (Oct 19, 12:00 PM)89% (Oct 20, 6:00 AM)29.92 "Hg (Oct 20, 6:00 AM)
Low68 °F (Oct 16, 6:00 AM)25% (Oct 21, 9:30 PM)29.71 "Hg (Oct 18, 2:30 PM)
Average84 °F57%29.82 "Hg
* Reported Oct 16 6:00 AM — Oct 31 6:30 AM, Makassar, Weather by CustomWeather, © 2014

Note: Actual official high and low records may vary slightly from our data, if they occured in-between our weather recording intervals... More about our weather records

Advertising

Makassar weather history for previous 24 hours

 ConditionsComfort  
Time TempWeatherWind HumidityBarometerVisibility
6:30 AM
Oct 31
75 °FPassing clouds.2 mph61%29.83 "HgN/A
6:00 AM72 °FPassing clouds.2 mph65%29.83 "HgN/A
5:30 AM72 °FPassing clouds.2 mph65%29.83 "Hg5 mi
5:00 AM73 °FPassing clouds.3 mph61%29.80 "Hg5 mi
4:30 AM73 °FMild.3 mph57%29.80 "HgN/A
4:00 AM73 °FPassing clouds.5 mph61%29.80 "Hg5 mi
3:30 AM73 °FPassing clouds.5 mph61%29.77 "Hg5 mi
3:00 AM73 °FPassing clouds.3 mph65%29.77 "Hg5 mi
2:30 AM73 °FPassing clouds.3 mph65%29.77 "Hg5 mi
2:00 AM73 °FPassing clouds.3 mph74%29.77 "Hg5 mi
1:30 AM75 °FPassing clouds.3 mph69%29.80 "Hg5 mi
1:00 AM75 °FPassing clouds.5 mph74%29.80 "Hg5 mi
12:30 AM77 °FPassing clouds.5 mph74%29.80 "Hg5 mi
12:00 AM77 °FPassing clouds.3 mph79%29.80 "Hg5 mi
11:30 PM
Oct 30
77 °FPassing clouds.3 mph89%29.83 "Hg5 mi
11:00 PM79 °FPassing clouds.3 mph84%29.83 "Hg5 mi
10:30 PM79 °FPassing clouds.2 mph89%29.83 "Hg5 mi
10:00 PM81 °FPassing clouds.5 mph84%29.83 "Hg5 mi
9:30 PM82 °FPassing clouds.6 mph79%29.83 "Hg5 mi
9:00 PM82 °FPassing clouds.6 mph79%29.83 "Hg5 mi
8:30 PM82 °FPassing clouds.6 mph74%29.80 "Hg5 mi
8:00 PM82 °FPassing clouds.3 mph74%29.80 "Hg5 mi
7:30 PM82 °FPassing clouds.3 mph74%29.80 "Hg5 mi
7:00 PM84 °FPassing clouds.3 mph70%29.77 "Hg5 mi
6:30 PM84 °FPassing clouds.7 mph70%29.77 "Hg5 mi
6:00 PM86 °FPassing clouds.6 mph66%29.74 "Hg6 mi
5:30 PM86 °FPassing clouds.8 mph66%29.74 "Hg6 mi
5:00 PM88 °FPassing clouds.8 mph59%29.74 "HgN/A
4:30 PM90 °FPassing clouds.10 mph52%29.71 "HgN/A
4:00 PM91 °FPassing clouds.12 mph44%29.71 "HgN/A
3:30 PM93 °FPassing clouds.12 mph39%29.71 "HgN/A
3:00 PM91 °FPassing clouds.12 mph44%29.74 "HgN/A
2:30 PM91 °FPassing clouds.15 mph49%29.74 "HgN/A
2:00 PM91 °FPassing clouds.15 mph49%29.74 "HgN/A
1:30 PM91 °FPassing clouds.15 mph46%29.74 "HgN/A
1:00 PM93 °FPassing clouds.13 mph47%29.77 "HgN/A
12:30 PM91 °FPassing clouds.14 mph46%29.77 "HgN/A
12:00 PM93 °FPassing clouds.14 mph36%29.80 "HgN/A
11:30 AM93 °FPassing clouds.9 mph39%29.80 "HgN/A
11:00 AM93 °FPassing clouds.7 mph39%29.80 "HgN/A
10:30 AM93 °FPassing clouds.5 mph32%29.83 "HgN/A
10:00 AM93 °FPassing clouds.3 mph34%29.83 "HgN/A
8:00 AM84 °FPassing clouds.5 mph40%29.86 "HgN/A
7:30 AM82 °FPassing clouds.5 mph40%29.86 "HgN/A
7:00 AM81 °FPassing clouds.3 mph42%29.86 "Hg5 mi
Weather by CustomWeather, © 2014

See weather overviewHow to use our weather pages